Location: Plainartige
(45.6866°N, 1.7993°E)
Time: 17:50:00
(UTC+00:00)

DIWATA 2B (PO-101) - Pass Details

Date: 04 July 2022
Orbit: 583 x 599 km, 98.0° (Epoch: 19 August)

Event Time Altitude Azimuth Distance (km) Brightness Sun altitude
Exits shadow 02:04:00 27° 193° (SSW) 1,155 ? -15.6°
Maximum altitude 02:06:04 54° 260° (W) 730 ? -15.4°
Drops below altitude 10° 02:10:13 10° 338° (NNW) 1,950 ? -15.1°
Sets 02:12:27 0° 343° (NNW) 2,857 ? -14.9°
